Powrót do katalogu

STARLINK-34068

AktywnyŁącznośćVLEO
NORAD 63914·PAYLOAD·🇺🇸 United States

Wystrzelony May 10, 2025 z Cape Canaveral Space Force Station

Loading…

Następne Przeloty (najbliższe 24 godziny)

TLE

ŚwieżeSource: CelesTrak SupGP

Epoka: Sep 14, 2026, 21:39 UTC

1 63914C 25095AA  26257.90256944 -.00017178  00000+0 -62206-3 0  2576
2 63914  43.0007 187.4822 0001343 266.5376 224.4009 15.27593921    13

Śledź STARLINK-34068 w czasie rzeczywistym z AllMySat

Download on the App Store